Home   Weather   Kingstree   Past weeks
Flag for USA

Past Weather in Kingstree, South Carolina, USA — Yesterday and Last 2 Weeks

Now
68 °F

Clear.


Feels Like: 68 °F
Forecast: 90 / 69 °F
Wind: No wind

Location: Manning / Cooper Regional

Current Time: Jun 26, 2019 at 6:11:12 am

Latest Report: Jun 26, 2019 at 5:15 am


Visibility: 10 mi

Pressure: 30.07 "Hg

Humidity: 94%

Dew Point: 66 °F

Location of KingstreeLocation

Past Weather in Kingstree — Graph

°F

Kingstree Temperature Yesterday

Maximum temperature yesterday: 90 °F (at 2:55 pm)
Minimum temperature yesterday: 68 °F (at 3:35 am)
Average temperature yesterday: 79 °F

High & Low Weather Summary for the Past Weeks

 TemperatureHumidityPressure
High91 °F (Jun 24, 4:15 pm)100% (Jun 11, 4:15 am)30.24 "Hg (Jun 11, 4:15 am)
Low54 °F (Jun 15, 3:55 am)28% (Jun 14, 3:55 pm)29.77 "Hg (Jun 20, 3:55 pm)
Average75 °F78%30.00 "Hg
* Reported Jun 11 4:15 am — Jun 26 4:35 am, Kingstree. Weather by CustomWeather, © 2019

Note: Actual official high and low records may vary slightly from our data, if they occured in-between our weather recording intervals... More about our weather records

Advertising

Kingstree Weather History for the Previous 24 Hours

Scroll right to see more
 ConditionsComfort  
Time TempWeatherWind HumidityBarometerVisibility
4:35 am
Wed, Jun 26
68 °FClear.No wind94%30.06 "Hg10 mi
4:15 am68 °FClear.No wind94%30.06 "Hg10 mi
3:55 am68 °FClear.No wind94%30.06 "Hg10 mi
3:35 am68 °FClear.No wind94%30.06 "Hg10 mi
3:15 am68 °FClear.No wind94%30.05 "Hg10 mi
2:55 am68 °FClear.No wind94%30.05 "Hg10 mi
2:35 am70 °FClear.No wind88%30.05 "Hg10 mi
2:15 am70 °FClear.No wind88%30.05 "Hg10 mi
1:55 am70 °FClear.No wind88%30.05 "Hg10 mi
1:35 am72 °FClear.No wind83%30.06 "Hg10 mi
1:15 am72 °FClear.No wind83%30.06 "Hg10 mi
12:55 am72 °FClear.No wind88%30.06 "Hg10 mi
12:35 am72 °FClear.No wind88%30.06 "Hg10 mi
12:15 am73 °FClear.No wind83%30.05 "Hg10 mi
11:55 pm
Tue, Jun 25
75 °FClear.3 mph74%30.05 "Hg10 mi
11:35 pm73 °FClear.3 mph83%30.05 "Hg10 mi
11:15 pm73 °FClear.No wind83%30.05 "Hg10 mi
10:55 pm75 °FClear.No wind78%30.04 "Hg10 mi
10:35 pm77 °FClear.No wind69%30.04 "Hg10 mi
10:15 pm79 °FClear.No wind61%30.02 "Hg10 mi
9:35 pm81 °FClear.No wind58%30.01 "Hg10 mi
9:15 pm81 °FClear.No wind58%30.00 "Hg10 mi
8:55 pm81 °FClear.3 mph58%30.00 "Hg10 mi
8:35 pm82 °FClear.No wind55%29.99 "Hg10 mi
8:15 pm82 °FSunny.No wind55%29.99 "Hg10 mi
7:55 pm84 °FSunny.No wind51%29.98 "Hg10 mi
7:35 pm86 °FSunny.No wind49%29.98 "Hg10 mi
7:15 pm86 °FSunny.3 mph49%29.98 "Hg10 mi
6:15 pm88 °FSunny.5 mph43%29.97 "Hg10 mi
5:55 pm90 °FSunny.7 mph41%29.97 "Hg10 mi
5:35 pm90 °FSunny.7 mph41%29.97 "Hg10 mi
5:15 pm90 °FSunny.3 mph41%29.97 "Hg10 mi
4:55 pm90 °FSunny.7 mph43%29.97 "Hg10 mi
4:35 pm90 °FSunny.6 mph41%29.97 "Hg10 mi
4:15 pm90 °FSunny.6 mph41%29.97 "Hg10 mi
3:55 pm90 °FSunny.7 mph38%29.97 "Hg10 mi
3:35 pm90 °FSunny.6 mph41%29.97 "Hg10 mi
3:15 pm90 °FSunny.8 mph41%29.98 "Hg10 mi
2:55 pm90 °FSunny.7 mph43%29.99 "Hg10 mi
2:35 pm88 °FScattered clouds.7 mph43%29.99 "Hg10 mi
2:15 pm88 °FScattered clouds.8 mph49%30.00 "Hg10 mi
1:55 pm86 °FScattered clouds.7 mph49%30.00 "Hg10 mi
1:35 pm86 °FSunny.6 mph55%30.00 "Hg10 mi
1:15 pm86 °FSunny.8 mph52%30.00 "Hg10 mi
12:55 pm86 °FSunny.8 mph52%30.00 "Hg10 mi
12:35 pm86 °FSunny.6 mph55%30.00 "Hg10 mi
12:15 pm84 °FSunny.6 mph58%30.01 "Hg10 mi
11:55 am86 °FSunny.6 mph55%30.01 "Hg10 mi
11:35 am84 °FSunny.7 mph58%30.01 "Hg10 mi
11:15 am82 °FSunny.8 mph62%30.00 "Hg10 mi
10:55 am82 °FSunny.7 mph62%30.00 "Hg10 mi
10:35 am81 °FSunny.6 mph70%30.00 "Hg10 mi
10:15 am81 °FSunny.8 mph70%30.00 "Hg10 mi
9:35 am77 °FSunny.6 mph79%30.01 "Hg10 mi
9:15 am77 °FSunny.6 mph79%30.01 "Hg10 mi
8:55 am75 °FSunny.5 mph83%30.00 "Hg10 mi
8:35 am73 °FSunny.7 mph89%30.00 "Hg10 mi
8:15 am73 °FSunny.6 mph89%29.99 "Hg10 mi
7:55 am72 °FSunny.No wind94%29.99 "Hg10 mi
7:35 am72 °FSunny.No wind94%29.98 "Hg10 mi
7:15 am70 °FSunny.No wind94%29.98 "Hg10 mi
6:55 am70 °FSunny.No wind94%29.97 "Hg10 mi
6:35 am70 °FMild.No wind94%29.96 "HgN/A
6:15 am70 °FSunny.No wind94%29.95 "Hg10 mi
Weather by CustomWeather, © 2019

See weather overview